Location: Unspecified
(40.7945°N, 111.1337°W)
Time: 12:27:21
(UTC-06:00)

Okean 3 - Pass Details

Date: 22 March 2019
Orbit: 576 x 602 km, 82.5° (Epoch: 20 April)

Event Time Altitude Azimuth Distance (km) Brightness Sun altitude
Rises 05:29:56 0° 159° (SSE) 2,825 6.9 -22.1°
Reaches altitude 10° 05:32:21 10° 148° (SSE) 1,931 6.2 -21.7°
Maximum altitude 05:35:59 28° 90° (E) 1,147 5.6 -21.0°
Drops below altitude 10° 05:39:39 10° 31° (NNE) 1,949 6.8 -20.4°
Sets 05:42:06 0° 20° (NNE) 2,857 7.5 -19.9°
